Location: Neuvy Saint Sepulchre
(46.5953°N, 1.8122°E)
Time: 11:07:27
(UTC+02:00)

ISS - Pass Details

Date: 26 March 2024
Orbit: 413 x 419 km, 51.6° (Epoch: 13 April)

Event Time Altitude Azimuth Distance (km) Brightness Sun altitude
Rises 21:25:06 0° 295° (WNW) 2,367 1.6 -22.1°
Reaches altitude 10° 21:27:13 10° 291° (WNW) 1,502 0.1 -22.5°
Enters shadow 21:29:47 44° 263° (W) 591 -2.8 -22.8°
